TimeMST,TemperatureF,Dew PointF,Humidity,Sea Level PressureIn,VisibilityMPH,Wind Direction,Wind SpeedMPH,Gust SpeedMPH,PrecipitationIn,Events,Conditions,WindDirDegrees,DateUTC
12:53 AM,-13.0,-18.0,78,30.61,10.0,Calm,Calm,-,N/A,,Clear,0,2014-02-05 07:53:00
1:17 AM,-14.1,-18.9,79,30.20,10.0,Calm,Calm,-,N/A,,Mostly Cloudy,0,2014-02-05 08:17:00
1:50 AM,-14.8,-18.4,84,30.20,10.0,Calm,Calm,-,N/A,,Scattered Clouds,0,2014-02-05 08:50:00
1:53 AM,-15.0,-20.0,78,30.62,10.0,Calm,Calm,-,N/A,,Partly Cloudy,0,2014-02-05 08:53:00
2:53 AM,-17.0,-22.0,78,30.65,10.0,WNW,4.6,-,N/A,,Partly Cloudy,290,2014-02-05 09:53:00
3:53 AM,-20.0,-25.1,78,30.67,10.0,NW,5.8,-,N/A,,Clear,310,2014-02-05 10:53:00
4:53 AM,-18.9,-24.0,78,30.68,10.0,NW,3.5,-,N/A,,Clear,310,2014-02-05 11:53:00
5:34 AM,-18.9,-25.1,74,30.21,10.0,West,4.6,-,N/A,,Mostly Cloudy,270,2014-02-05 12:34:00
5:53 AM,-18.9,-24.0,78,30.68,9.0,WSW,4.6,-,N/A,,Mostly Cloudy,240,2014-02-05 12:53:00
6:01 AM,-20.0,-25.1,78,30.21,10.0,Calm,Calm,-,N/A,,Partly Cloudy,0,2014-02-05 13:01:00
6:53 AM,-18.9,-24.0,78,30.69,10.0,Calm,Calm,-,N/A,,Clear,0,2014-02-05 13:53:00
7:53 AM,-18.9,-26.0,70,30.70,10.0,North,3.5,-,N/A,,Clear,350,2014-02-05 14:53:00
8:53 AM,-9.9,-14.1,82,30.66,10.0,Calm,Calm,-,N/A,,Clear,0,2014-02-05 15:53:00
9:53 AM,-6.0,-13.0,72,30.63,10.0,Calm,Calm,-,N/A,,Clear,0,2014-02-05 16:53:00
10:53 AM,-5.1,-15.0,62,30.63,10.0,SSW,4.6,-,N/A,,Clear,210,2014-02-05 17:53:00
11:19 AM,-5.1,-14.1,65,30.23,10.0,South,4.6,-,N/A,,Mostly Cloudy,190,2014-02-05 18:19:00
11:53 AM,-5.1,-14.1,65,30.62,10.0,West,6.9,-,N/A,,Overcast,280,2014-02-05 18:53:00
12:53 PM,-4.0,-11.9,69,30.61,10.0,WSW,9.2,-,N/A,,Overcast,250,2014-02-05 19:53:00
1:38 PM,-0.9,-11.0,62,30.17,10.0,North,-9999.0,-,N/A,,Overcast,0,2014-02-05 20:38:00
1:53 PM,-6.0,-13.0,72,30.61,4.0,ESE,6.9,-,N/A,,Haze,120,2014-02-05 20:53:00
2:08 PM,-5.1,-11.9,72,30.17,5.0,ESE,8.1,-,N/A,,Haze,110,2014-02-05 21:08:00
2:53 PM,-7.1,-14.1,72,30.64,2.0,East,8.1,-,0.00,Snow,Light Snow,90,2014-02-05 21:53:00
3:02 PM,-8.0,-14.1,75,30.18,1.5,East,5.8,-,0.00,Snow,Light Snow,90,2014-02-05 22:02:00
3:53 PM,-9.0,-16.1,71,30.66,1.2,East,8.1,-,0.00,Snow,Light Snow,90,2014-02-05 22:53:00
4:42 PM,-11.0,-17.0,75,30.19,2.0,East,6.9,-,0.01,Snow,Light Snow,100,2014-02-05 23:42:00
4:53 PM,-11.0,-17.0,75,30.68,2.0,ESE,5.8,-,0.01,Snow,Light Snow,110,2014-02-05 23:53:00
5:06 PM,-11.0,-17.0,75,30.19,3.0,East,5.8,-,0.00,,Haze,100,2014-02-06 00:06:00
5:53 PM,-13.0,-18.9,75,30.69,10.0,Calm,Calm,-,0.00,,Scattered Clouds,0,2014-02-06 00:53:00
6:33 PM,-15.0,-20.0,78,30.19,10.0,Calm,Calm,-,N/A,,Mostly Cloudy,0,2014-02-06 01:33:00
6:49 PM,-16.6,-20.2,84,30.19,10.0,Calm,Calm,-,N/A,,Mostly Cloudy,0,2014-02-06 01:49:00
6:53 PM,-16.1,-20.9,79,30.69,10.0,Calm,Calm,-,N/A,,Mostly Cloudy,0,2014-02-06 01:53:00
7:41 PM,-18.0,-23.1,78,30.18,10.0,Calm,Calm,-,N/A,,Mostly Cloudy,0,2014-02-06 02:41:00
7:53 PM,-18.0,-23.1,78,30.69,10.0,Calm,Calm,-,N/A,,Mostly Cloudy,0,2014-02-06 02:53:00
8:53 PM,-18.0,-23.1,78,30.64,10.0,NW,3.5,-,N/A,,Mostly Cloudy,310,2014-02-06 03:53:00
9:11 PM,-20.0,-25.1,78,30.16,10.0,West,4.6,-,N/A,,Scattered Clouds,270,2014-02-06 04:11:00
9:18 PM,-18.9,-25.1,74,30.16,10.0,WNW,3.5,-,N/A,,Mostly Cloudy,300,2014-02-06 04:18:00
9:36 PM,-18.9,-24.0,78,30.16,10.0,West,3.5,-,N/A,,Scattered Clouds,280,2014-02-06 04:36:00
9:45 PM,-20.9,-26.0,77,30.16,10.0,SW,3.5,-,N/A,,Mostly Cloudy,230,2014-02-06 04:45:00
9:53 PM,-20.9,-27.0,73,30.62,10.0,SSW,4.6,-,N/A,,Mostly Cloudy,210,2014-02-06 04:53:00
10:22 PM,-18.0,-24.0,74,30.15,10.0,Calm,Calm,-,N/A,,Mostly Cloudy,0,2014-02-06 05:22:00
10:53 PM,-18.9,-23.1,81,30.59,10.0,SW,3.5,-,N/A,,Scattered Clouds,230,2014-02-06 05:53:00
11:09 PM,-18.9,-25.1,74,30.13,10.0,SSW,3.5,-,N/A,,Mostly Cloudy,210,2014-02-06 06:09:00
11:53 PM,-22.0,-27.0,77,30.59,10.0,Calm,Calm,-,N/A,,Mostly Cloudy,0,2014-02-06 06:53:00